Hebron, KY

11:03 AM EST on February 06, 2016 (GMT -0500)
Cincinnati-Northern KY International

Weather History for KCVG - September, 2011

Change the Weather History Date:

Tuesday, September 27, 2011

  Actual Average Record
Temperature  
Mean Temperature 58 °F 63 °F  
Max Temperature 67 °F 73 °F 90 °F (1998)
Min Temperature 48 °F 52 °F 37 °F (1991)
Degree Days  
Heating Degree Days 7 4  
Month to date heating degree days 60 43  
Since 1 July heating degree days 60 43  
Cooling Degree Days 0 2  
Month to date cooling degree days 104 131  
Year to date cooling degree days 1333 1099  
Growing Degree Days 8 (Base 50)    
Moisture  
Dew Point 50 °F    
Average Humidity 74    
Maximum Humidity 89    
Minimum Humidity 58    
Precipitation  
Precipitation 0.00 in 0.09 in 2.55 in (2002)
Month to date precipitation 7.26 2.35  
Year to date precipitation 54.16 32.14  
Snow  
Snow 0.00 in 0.00 in - ()
Month to date snowfall 0.0 0.0  
Since 1 July snowfall 0.0 0.0  
Since 1 September snowfall 0.0 0.0  
Snow Depth -    
Sea Level Pressure  
Sea Level Pressure 29.83 in    
Wind  
Wind Speed 8 mph (South)    
Max Wind Speed 20 mph    
Max Gust Speed 24 mph    
Visibility 10 miles    
Events      
T = Trace of Precipitation, MM = Missing Value Source: NWS Daily Summary

Daily Weather History Graph

Daily Weather History Graph

Search for Another Location

Airport or City:

Trip Planner

Search our weather history database for the weather conditions in past years. The results will help you decide how hot, cold, wet, or windy it might be!

Date:

Astronomy

Sep. 27, 2011 Rise Set
Actual Time 7:30 AM EDT 7:28 PM EDT
Civil Twilight 7:04 AM EDT 7:54 PM EDT
Nautical Twilight 6:32 AM EDT 8:25 PM EDT
Astronomical Twilight 6:01 AM EDT 8:57 PM EDT
Moon 7:43 AM EDT (9/27) 7:19 PM EDT (9/27)
Length of Visible Light 12h 50m
Length of Day
11h 57m
New Moon, 0% of the Moon is Illuminated
Sep 27
New Moon
Oct 3
First Quarter
Oct 11
Full
Oct 19
Last Quarter
Oct 26
New

Hourly Weather History & Observations

Time (EDT) Temp. Dew Point Humidity Pressure Visibility Wind Dir Wind Speed Gust Speed Precip Events Conditions
12:52 AM 52.0 °F 48.0 °F 86% 29.86 in 10.0 mi South 5.8 mph - N/A   Clear
1:52 AM 50.0 °F 46.4 °F 87% 29.86 in 9.0 mi South 6.9 mph - N/A   Clear
2:52 AM 51.1 °F 46.9 °F 86% 29.86 in 10.0 mi South 6.9 mph - N/A   Partly Cloudy
3:52 AM 50.0 °F 46.9 °F 89% 29.86 in 10.0 mi South 6.9 mph - N/A   Scattered Clouds
4:52 AM 52.0 °F 48.9 °F 89% 29.85 in 10.0 mi SSE 8.1 mph - N/A   Mostly Cloudy
5:52 AM 53.1 °F 48.9 °F 86% 29.85 in 10.0 mi South 5.8 mph - N/A   Overcast
6:52 AM 54.0 °F 48.9 °F 83% 29.84 in 10.0 mi South 6.9 mph - N/A   Overcast
8:52 AM 57.0 °F 50.0 °F 77% 29.83 in 10.0 mi South 8.1 mph - N/A   Partly Cloudy
9:52 AM 61.0 °F 51.1 °F 70% 29.83 in 10.0 mi South 12.7 mph - N/A   Mostly Cloudy
10:52 AM 61.0 °F 50.0 °F 67% 29.84 in 10.0 mi South 13.8 mph - N/A   Overcast
11:52 AM 63.0 °F 51.1 °F 65% 29.85 in 10.0 mi South 11.5 mph - N/A   Overcast
12:52 PM 64.0 °F 51.1 °F 63% 29.83 in 10.0 mi South 9.2 mph 19.6 mph N/A   Overcast
1:52 PM 64.9 °F 50.0 °F 58% 29.82 in 10.0 mi South 15.0 mph 23.0 mph N/A   Overcast
2:52 PM 64.0 °F 51.1 °F 63% 29.81 in 10.0 mi SSW 10.4 mph - N/A   Overcast
3:52 PM 64.9 °F 51.1 °F 61% 29.80 in 10.0 mi SSW 8.1 mph 18.4 mph N/A   Overcast
4:52 PM 66.0 °F 52.0 °F 60% 29.79 in 10.0 mi South 10.4 mph - N/A   Overcast
5:52 PM 64.9 °F 51.1 °F 61% 29.80 in 10.0 mi SSW 6.9 mph - N/A   Mostly Cloudy
6:52 PM 63.0 °F 53.1 °F 70% 29.81 in 10.0 mi South 5.8 mph - N/A   Scattered Clouds
7:52 PM 59.0 °F 53.1 °F 81% 29.82 in 10.0 mi South 4.6 mph - N/A   Mostly Cloudy
8:52 PM 60.8 °F 53.6 °F 77% 29.84 in 10.0 mi SSW 3.5 mph - N/A   Overcast
9:52 PM 60.1 °F 53.1 °F 78% 29.84 in 10.0 mi WSW 4.6 mph - N/A   Overcast
10:52 PM 59.0 °F 52.0 °F 78% 29.85 in 10.0 mi Calm Calm - N/A   Partly Cloudy
11:52 PM 55.9 °F 51.1 °F 84% 29.85 in 10.0 mi WSW 3.5 mph - N/A   Partly Cloudy